星链-5193 (STARLINK-5193 )

导读

STARLINK-5193是美国太空探索技术公司(SpaceX)星链互联网卫星星座的一员,于2022年10月20日发射入轨。星链计划旨在搭建全球卫星互联网,为全球提供宽带互联网接入服务,该卫星主要承担低轨道网络通信节点任务,助力覆盖偏远地区网络盲区,提升全球网络连通性。

Basic Information
目录编号:
54095
目录名称:
STARLINK-5193
国际标识:
2022-136AW
轨道中心:
EARTH
卫星名称:
星链-5193
卫星全名:
星链-5193 (STARLINK-5193 )
卫星状态:
在轨 (已飞行1423 天)
发射日期:
2022-10-20 UTC
国别 :
美国 (US)
星等 :
--
This satellite is enrolled in the Space Conjunction Data Service (SCDS) and the current flight risk assessment level is: High Risk
Orbit Information
数据来源 国际轨道数据 AOE轨道数据
星历时间 2026-09-12T14:05:10+0800
8小时前
查看轨道信息
2026-09-09T23:00:00+0800
3天前
查看轨道信息
半长轴 6914.926km 6917.873km
偏心率 0.0004652 0.0001262
轨道倾角 53.160° 53.159°
近地点辐角 227.844° 74.293°
升交点赤经 215.656° 227.477°
平近点角 132.216° 35.077°
近地点 533.572km 538.862km
远地点 540.006km 540.61km
周期 95.376分钟 95.437分钟
每日圈数 15.098072 15.088427
Detailed Information
固有亮度:
5
最大亮度:
2.5
卫星平台:
Starlink v1.5
覆盖范围:
全球
运营商:
太空探索技术公司
运营商所在国:
美国
制造商(研发单位):
太空探索技术公司
制造商所在国:
美国
使用方式:
暂无
Satellite Introduction
星链(Starlink)计划是由太空探索技术公司(SpaceX)提出的一个巨型低轨卫星互联网星座项目,计划在2019年至2024年间在太空搭建由约1.2万颗卫星组成的“星链”网络,其中1584颗将部署在地球上空550千米处的近地轨道,并从2020年开始工作。该卫星仍在工作。
2D Orbit Map
3D Orbit Map
Orbit Altitude Analysis Chart
Orbit Inclination Analysis Chart
Orbit Comprehensive Analysis Chart
View Comprehensive Chart
Conjunction Data List
Event ID Objects TCA Miss Dist (km) Collision Risk Probability Collision Risk Index (CRI) Action
CDM_260914-223402-489305-409521
SL-3 DEB (24893)
2026-09-14T
22:34:31+0000
0.078 km
近距离
1.178611E-3 极高风险 0.96
CDM_260913-214105-349505-409521
2026-09-13T
21:41:15+0000
2.570 km
极远距离
1.656028E-6 低风险 0.39
Miss Distance Evolution Trend with All Objects
Collision Probability Evolution Trend with All Objects